Regional Weather Roundup
Issued by NWS

Home | Current Version | Previous Version | Graphics & Text | Print | Product List | Glossary On
Versions: 1 2 3 4 5 6 7 8 9 10 11 12 13 14 15 16 17 18 19 20 21 22 23 24 25 26 27 28 29 30 31 32 33 34 35 36 37 38 39 40 41 42 43 44 45 46 47 48 49 50
105
ASUS43 KDMX 252101
RWRIA

WEATHER ROUNDUP FOR IOWA
NATIONAL WEATHER SERVICE DES MOINES IA
400 PM CDT SUN JUN 25 2017

NOTE: "FAIR" INDICATES FEW OR NO CLOUDS BELOW 12,000 FEET WITH NO
SIGNIFICANT WEATHER AND/OR OBSTRUCTIONS TO VISIBILITY.

* - THESE STATIONS ARE NOT NWS STATIONS...THUS NOT UNDER NWS
QUALITY CONTROL.  THEY ALSO DO NOT REPORT WEATHER SUCH
AS PRECIPITATION OR FOG.

IAZ001>003-012>014-020>022-031>034-043>046-252200-
   NORTHWEST IOWA

CITY           SKY/WX    TMP DP  RH WIND       PRES   REMARKS
CARROLL *      SUNNY     73  41  31 NW10G21   30.23S
CHEROKEE *     SUNNY     71  42  35 N10G18    30.23F
DENISON *      SUNNY     72  41  33 N9G15     30.25F
LE MARS *      SUNNY     72  41  33 N8G18     30.25S
ORANGE CITY *  SUNNY     72  43  35 N9        30.24S
SHELDON *      SUNNY     70  39  32 N14G24    30.22S
SIOUX CITY     SUNNY     75  41  29 N15       30.25S
SPENCER        MOSUNNY   71  40  32 N23G29    30.22F
STORM LAKE *     N/A     72  39  30 N17G25    30.23F
$$

IAZ055>058-069>071-079>083-090>094-252200-
   SOUTHWEST IOWA

CITY           SKY/WX    TMP DP  RH WIND       PRES   REMARKS
ATLANTIC *     SUNNY     72  41  33 NW14      30.25S
AUDUBON *      SUNNY     72  41  33 NW7G18    30.25S
CLARINDA *     SUNNY     73  45  35 NW12G17   30.28F
COUNCIL BLFS *   N/A    N/A N/A N/A NW10G18   30.26S
CRESTON *      SUNNY     72  43  35 W12G24    30.26S
HARLAN  *      SUNNY     72  43  35 N12       30.28F
LAMONI         SUNNY     73  45  36 NW13      30.24F
RED OAK *      SUNNY     73  45  35 NW9       30.26S
SHENANDOAH *   SUNNY     73  46  38 NW9       30.26F
$$

IAZ047>049-059>061-072>074-084-252200-
   CENTRAL IOWA

CITY           SKY/WX    TMP DP  RH WIND       PRES   REMARKS
AMES           MOSUNNY   72  43  35 NW15G25   30.21S
ANKENY *       MOSUNNY   72  43  35 NW18      30.22S
BOONE *        MOSUNNY   70  43  37 NW16G25   30.20F
CHARITON *     SUNNY     72  43  35 NW13G21   30.22S
DES MOINES     MOSUNNY   75  42  30 NW18G24   30.21F
GRINNELL*      MOSUNNY   71  41  33 W20       30.20F
KNOXVILLE *    SUNNY     70  43  37 NW16      30.20F
MARSHALLTOWN   MOSUNNY   72  45  37 NW20G25   30.18F
NEWTON *       SUNNY     70  41  35 NW16      30.20F
PELLA *        SUNNY     73  42  32 NW12G24   30.21F
PERRY *          N/A     72  40  31 NW12      30.23S
$$

IAZ004>006-015-016-023>025-035-036-252200-
   NORTH CENTRAL IOWA

CITY           SKY/WX    TMP DP  RH WIND       PRES   REMARKS
ALGONA *       MOSUNNY   70  41  35 NW15G23   30.21S
CLARION *        N/A     70  39  32 NW20G28   30.20S
ESTHERVILLE    MOSUNNY   66  41  40 NW18G29   30.21F
FORT DODGE *   SUNNY     72  45  37 NW13G18   30.22S
MASON CITY     MOSUNNY   70  40  33 NW20G31   30.19F
FOREST CITY *    N/A     70  27  19 NW17G26   30.19S
WEBSTER CITY * MOSUNNY   72  41  33 NW21G26   30.19S
IOWA FALLS *     N/A     71  41  34 NW17G25   30.20F
$$

IAZ007>011-017>019-026>030-037>042-050>054-066-252200-
   NORTHEAST IOWA

CITY           SKY/WX    TMP DP  RH WIND       PRES   REMARKS
CEDAR RAPIDS   PTSUNNY   70  50  49 NW18G24   30.16F
CHARLES CITY * MOSUNNY   68  45  42 NW16G23   30.17F
CLINTON *      CLOUDY    67  51  56 NW20G26   30.16S
DECORAH *      CLOUDY    61  50  67 W7G16     30.15S
DUBUQUE        CLOUDY    62  49  62 NW15      30.16F
MONTICELLO *   CLOUDY    66  50  55 NW13G22   30.16S
OELWEIN *      PTSUNNY   66  50  55 NW18      30.17S
WATERLOO       MOSUNNY   70  45  40 NW16G23   30.16S
$$

IAZ064-065-067-068-078-252200-
   EAST CENTRAL IOWA

CITY           SKY/WX    TMP DP  RH WIND       PRES   REMARKS
DAVENPORT      PTSUNNY   67  49  52 NW14      30.17S
IOWA CITY      MOSUNNY   71  47  42 W15G24    30.18F
MT. PLEASANT * PTSUNNY   72  43  35 W12G21    30.18F
MUSCATINE *    MOSUNNY   73  46  38 NW15      30.17S
QUAD CITIES    PTSUNNY   70  48  45 NW17G24   30.16S
$$

IAZ062-063-075>077-085>089-095>099-252200-
   SOUTHEAST IOWA

CITY           SKY/WX    TMP DP  RH WIND       PRES   REMARKS
BURLINGTON     PTSUNNY   74  47  38 NW12G22   30.17F
FAIRFIELD *    MOSUNNY   72  41  33 W14G24    30.19S
FORT MADISON * MOSUNNY   73  46  38 W14G20    30.19F
KEOKUK *       SUNNY     73  45  35 NW10G20   30.18F
OSKALOOSA *      N/A     72  42  33 NW18G30   30.20F
OTTUMWA        MOSUNNY   73  42  32 W12G23    30.20F
WASHINGTON *   PTSUNNY   73  45  35 NW16      30.19F
$$

ABBREVIATIONS USED IN REMARKS
   TC - TEMPERATURES IN CELSIUS
  WCI - WIND CHILL INDEX
   HX - HEAT INDEX
  VSB - VISIBILITY
$$





USA.gov is the U.S. government's official web portal to all federal, state and local government web resources and services.